Brady, TX

1:36 PM CDT on April 23, 2017 (GMT -0500)
Curtis

Weather History for KBBD - April, 2013

Change the Weather History Date:

Wednesday, April 10, 2013

  Actual Average (KJCT) Record (KJCT)
Temperature  
Mean Temperature 50 °F -  
Max Temperature 66 °F 75 °F 93 °F (2011)
Min Temperature 35 °F 48 °F 33 °F (2003)
Degree Days  
Heating Degree Days 14    
Moisture  
Dew Point 36 °F    
Average Humidity 73    
Maximum Humidity 100    
Minimum Humidity 47    
Precipitation  
Precipitation 0.00 in - - ()
Sea Level Pressure  
Sea Level Pressure 29.90 in    
Wind  
Wind Speed 17 mph (NNW)    
Max Wind Speed 23 mph    
Max Gust Speed 32 mph    
Visibility 10 miles    
Events Rain    
Averages and records for this station are not official NWS values.
T = Trace of Precipitation, MM = Missing Value Source: NWS Daily Summary

Daily Weather History Graph

Daily Weather History Graph

Search for Another Location

Airport or City:

Trip Planner

Search our weather history database for the weather conditions in past years. The results will help you decide how hot, cold, wet, or windy it might be!

Date:

Astronomy

Apr. 10, 2013 Rise Set
Actual Time 7:14 AM CDT 8:02 PM CDT
Civil Twilight 6:50 AM CDT 8:27 PM CDT
Nautical Twilight 6:21 AM CDT 8:56 PM CDT
Astronomical Twilight 5:51 AM CDT 9:26 PM CDT
Moon 7:13 AM CDT (4/10) 8:35 PM CDT (4/10)
Length of Visible Light 13h 37m
Length of Day
12h 47m
New Moon, 0% of the Moon is Illuminated
Apr 10
New Moon
Apr 18
First Quarter
Apr 25
Full
May 2
Last Quarter
May 9
New

Hourly Weather History & Observations

Time (CDT) Temp. Windchill Dew Point Humidity Pressure Visibility Wind Dir Wind Speed Gust Speed Precip Events Conditions
12:15 AM 66.2 °F - 66.2 °F 100% 29.71 in 10.0 mi NNW 12.7 mph 21.9 mph N/A   Overcast
12:35 AM 57.2 °F - 44.6 °F 63% 29.72 in 10.0 mi NNW 20.7 mph - N/A   Overcast
12:55 AM 55.4 °F - 42.8 °F 63% 29.73 in 10.0 mi NNW 19.6 mph - N/A   Overcast
1:15 AM 51.8 °F - 39.2 °F 62% 29.75 in 10.0 mi NNW 19.6 mph - N/A   Overcast
1:35 AM 50.0 °F - 37.4 °F 62% 29.78 in 10.0 mi NNW 20.7 mph - N/A   Overcast
1:55 AM 48.2 °F - 35.6 °F 62% 29.78 in 10.0 mi NNW 18.4 mph - N/A   Overcast
2:15 AM 46.4 °F 38.5 °F 33.8 °F 62% 29.77 in 10.0 mi NNW 21.9 mph - N/A   Mostly Cloudy
2:35 AM 44.6 °F 37.2 °F 35.6 °F 71% 29.78 in 10.0 mi NNW 17.3 mph - N/A   Mostly Cloudy
2:55 AM 44.6 °F 36.9 °F 35.6 °F 71% 29.78 in 10.0 mi NNW 18.4 mph - N/A   Mostly Cloudy
3:15 AM 42.8 °F 34.5 °F 35.6 °F 76% 29.81 in 10.0 mi NNW 18.4 mph - N/A   Overcast
3:35 AM 41.0 °F 31.4 °F 35.6 °F 81% 29.82 in 10.0 mi NNW 21.9 mph - N/A   Overcast
3:55 AM 41.0 °F 31.9 °F 35.6 °F 81% 29.83 in 10.0 mi NNW 19.6 mph - N/A   Overcast
4:15 AM 41.0 °F 32.5 °F 35.6 °F 81% 29.85 in 10.0 mi NNW 17.3 mph - N/A   Overcast
4:35 AM 39.2 °F 29.6 °F 37.4 °F 93% 29.85 in 7.0 mi NNW 19.6 mph - N/A   Overcast
4:55 AM 39.2 °F 30.2 °F 35.6 °F 87% 29.85 in 10.0 mi NNW 17.3 mph - N/A   Overcast
5:15 AM 39.2 °F 30.5 °F 35.6 °F 87% 29.86 in 9.0 mi NNW 16.1 mph - N/A   Overcast
5:35 AM 39.2 °F 29.8 °F 35.6 °F 87% 29.87 in - NNW 18.4 mph - N/A   Overcast
5:55 AM 39.2 °F 30.5 °F 35.6 °F 87% 29.87 in 10.0 mi NNW 16.1 mph - N/A   Overcast
6:15 AM 37.4 °F 27.2 °F 33.8 °F 87% 29.87 in - NNW 19.6 mph - N/A   Overcast
6:35 AM 37.4 °F 28.9 °F 35.6 °F 93% 29.88 in - NNW 13.8 mph - N/A Rain Light Rain
6:55 AM 37.4 °F 27.5 °F 35.6 °F 93% 29.88 in - NNW 18.4 mph - N/A   Overcast
7:15 AM 37.4 °F 27.2 °F 35.6 °F 93% 29.89 in - NNW 19.6 mph - N/A   Overcast
7:35 AM 37.4 °F 28.2 °F 35.6 °F 93% 29.90 in - NNW 16.1 mph - N/A Rain Light Rain
7:55 AM 37.4 °F 28.9 °F 35.6 °F 93% 29.92 in - NNW 13.8 mph - N/A Rain Rain
8:15 AM 37.4 °F 27.8 °F 37.4 °F 100% 29.92 in - NNW 17.3 mph - N/A Rain Light Rain
8:35 AM 37.4 °F 27.8 °F 37.4 °F 100% 29.94 in 10.0 mi NW 17.3 mph - N/A Rain Light Rain
8:55 AM 37.4 °F 26.9 °F 35.6 °F 93% 29.94 in - NW 20.7 mph - N/A Rain Light Rain
9:15 AM 37.4 °F 26.9 °F 35.6 °F 93% 29.96 in - NW 20.7 mph - N/A   Overcast
9:35 AM 35.6 °F 24.0 °F 35.6 °F 100% 29.96 in - NW 23.0 mph - N/A   Overcast
9:55 AM 35.6 °F 25.9 °F 35.6 °F 100% 29.98 in - NW 16.1 mph - N/A   Overcast
10:15 AM 35.6 °F 25.2 °F 33.8 °F 93% 29.99 in 10.0 mi NW 18.4 mph - N/A   Overcast
10:35 AM 35.6 °F 25.2 °F 33.8 °F 93% 29.99 in 10.0 mi NW 18.4 mph - N/A   Overcast
10:55 AM 37.4 °F 27.5 °F 33.8 °F 87% 29.98 in 10.0 mi NNW 18.4 mph 32.2 mph N/A   Overcast
11:15 AM 37.4 °F 27.5 °F 33.8 °F 87% 29.99 in - NW 18.4 mph - N/A   Overcast
11:35 AM 39.2 °F 30.2 °F 33.8 °F 81% 30.00 in - NW 17.3 mph - N/A   Unknown
12:15 PM 41.0 °F 32.8 °F 33.8 °F 76% 29.98 in - NNW 16.1 mph - N/A   Unknown
12:35 PM 42.8 °F 36.2 °F 33.8 °F 70% 29.96 in - NNW 12.7 mph - N/A   Unknown
12:55 PM 44.6 °F 37.8 °F 35.6 °F 71% 29.96 in - North 15.0 mph - N/A   Unknown
1:15 PM 48.2 °F - 35.6 °F 62% 29.95 in - NNW 15.0 mph - N/A   Unknown
1:35 PM 50.0 °F - 37.4 °F 62% 29.95 in - NNW 13.8 mph - N/A   Unknown
1:55 PM 51.8 °F - 37.4 °F 58% 29.94 in 10.0 mi NNW 16.1 mph - N/A   Clear
2:15 PM 51.8 °F - 37.4 °F 58% 29.94 in 10.0 mi North 17.3 mph - N/A   Partly Cloudy
2:35 PM 53.6 °F - 37.4 °F 54% 29.94 in - North 19.6 mph - N/A   Unknown
2:55 PM 53.6 °F - 37.4 °F 54% 29.93 in - NNW 17.3 mph - N/A   Unknown
4:15 PM 55.4 °F - 37.4 °F 51% 29.91 in - North 13.8 mph - N/A   Unknown
4:35 PM 53.6 °F - 37.4 °F 54% 29.90 in - North 16.1 mph - N/A   Unknown
4:55 PM 55.4 °F - 35.6 °F 47% 29.89 in - North 16.1 mph - N/A   Unknown
6:15 PM 53.6 °F - 35.6 °F 51% 29.90 in 10.0 mi NNW 10.4 mph - N/A   Unknown
6:35 PM 53.6 °F - 37.4 °F 54% 29.90 in 10.0 mi North 13.8 mph - N/A   Clear
6:55 PM 53.6 °F - 35.6 °F 51% 29.89 in 10.0 mi North 12.7 mph - N/A   Clear
7:15 PM 53.6 °F - 35.6 °F 51% 29.91 in 10.0 mi North 11.5 mph - N/A   Clear
7:35 PM 51.8 °F - 35.6 °F 54% 29.91 in 10.0 mi North 13.8 mph - N/A   Clear
7:55 PM 50.0 °F - 35.6 °F 58% 29.92 in 10.0 mi North 9.2 mph - N/A   Clear
8:15 PM 48.2 °F - 35.6 °F 62% 29.93 in 10.0 mi North 8.1 mph - N/A   Clear
8:35 PM 48.2 °F - 35.6 °F 62% 29.92 in 10.0 mi North 10.4 mph - N/A   Clear
8:55 PM 48.2 °F - 35.6 °F 62% 29.93 in 10.0 mi North 11.5 mph - N/A   Clear
9:15 PM 48.2 °F - 35.6 °F 62% 29.94 in 10.0 mi North 11.5 mph - N/A   Clear
9:35 PM 48.2 °F - 35.6 °F 62% 29.94 in 10.0 mi North 11.5 mph - N/A   Clear
9:55 PM 48.2 °F - 35.6 °F 62% 29.94 in 10.0 mi North 16.1 mph - N/A   Clear
10:15 PM 48.2 °F - 35.6 °F 62% 29.97 in 10.0 mi North 10.4 mph - N/A   Clear
10:35 PM 46.4 °F 40.7 °F 33.8 °F 62% 29.97 in 10.0 mi North 12.7 mph - N/A   Clear
10:55 PM 46.4 °F 41.1 °F 33.8 °F 62% 29.96 in 10.0 mi North 11.5 mph - N/A   Clear
11:15 PM 46.4 °F 42.4 °F 33.8 °F 62% 29.98 in 10.0 mi North 8.1 mph - N/A   Clear
11:35 PM 46.4 °F 42.4 °F 33.8 °F 62% 29.99 in 10.0 mi North 8.1 mph - N/A   Clear
11:55 PM 46.4 °F 42.4 °F 33.8 °F 62% 29.99 in 10.0 mi North 8.1 mph - N/A   Clear